QPF
0.00 0.00 0.00 0.00 0.00 0.00 0.01 0.01 0.01 0.02 0.03 0.03 0.04 0.03 0.02 0.02 0.02 0.03 0.03 0.07 0.11 0.11 0.08 0.08 0.08 0.08 0.06 0.05 0.05 0.04 0.04 0.04 0.04 0.05 0.05 0.05 0.03 0.03 0.03 0.03 0.02 0.03 0.03
0.00 0.00 0.00 0.00 0.00 0.00 0.01 0.01 0.02 0.02 0.03 0.03 0.04 0.03 0.03 0.02 0.01 0.01 0.02 0.03 0.05 0.08 0.09 0.09 0.07 0.05 0.04 0.05 0.05 0.04 0.04 0.03 0.03 0.04 0.04 0.04 0.04 0.03 0.03 0.03 0.04 0.04 0.04
0.01 0.01 0.00 0.00 0.02 0.02 0.01 0.01 0.02 0.02 0.02 0.03 0.05 0.05 0.05 0.02 0.01 0.01 0.02 0.02 0.03 0.06 0.07 0.07 0.05 0.04 0.04 0.04 0.05 0.05 0.05 0.04 0.03 0.03 0.03 0.04 0.04 0.03 0.04 0.04 0.03 0.03 0.03
0.01 0.01 0.01 0.01 0.01 0.01 0.01 0.01 0.02 0.01 0.01 0.02 0.05 0.06 0.05 0.04 0.02 0.02 0.02 0.02 0.03 0.04 0.03 0.04 0.05 0.05 0.04 0.03 0.04 0.06 0.05 0.05 0.05 0.04 0.04 0.04 0.04 0.04 0.04 0.04 0.03 0.03 0.03
0.00 0.00 0.00 0.00 0.00 0.00 0.00 0.01 0.01 0.01 0.01 0.02 0.04 0.05 0.04 0.04 0.03 0.02 0.03 0.02 0.03 0.04 0.03 0.03 0.05 0.07 0.09 0.10 0.10 0.09 0.07 0.06 0.06 0.04 0.04 0.03 0.04 0.04 0.03 0.04 0.03 0.03 0.03
0.00 0.00 0.00 0.00 0.00 0.00 0.00 0.01 0.01 0.01 0.01 0.02 0.03 0.03 0.02 0.02 0.04 0.05 0.05 0.04 0.04 0.03 0.02 0.02 0.03 0.04 0.08 0.11 0.11 0.08 0.08 0.07 0.06 0.05 0.04 0.03 0.04 0.04 0.04 0.04 0.03 0.03 0.03
0.00 0.00 0.00 0.00 0.00 0.00 0.00 0.00 0.01 0.01 0.01 0.01 0.01 0.01 0.01 0.01 0.02 0.04 0.05 0.04 0.04 0.03 0.02 0.02 0.02 0.01 0.02 0.05 0.07 0.06 0.07 0.07 0.06 0.05 0.04 0.03 0.06 0.07 0.06 0.06 0.04 0.03 0.02
0.01 0.00 0.00 0.00 0.00 0.00 0.00 0.01 0.02 0.01 0.01 0.01 0.01 0.01 0.01 0.01 0.01 0.01 0.02 0.02 0.02 0.02 0.02 0.02 0.01 0.01 0.01 0.02 0.03 0.03 0.02 0.03 0.03 0.04 0.04 0.04 0.09 0.13 0.09 0.07 0.05 0.03 0.03
0.01 0.00 0.00 0.00 0.00 0.00 0.00 0.00 0.01 0.01 0.01 0.01 0.01 0.02 0.01 0.01 0.00 0.00 0.01 0.01 0.01 0.01 0.01 0.02 0.02 0.03 0.02 0.01 0.01 0.02 0.02 0.02 0.02 0.03 0.05 0.05 0.07 0.14 0.13 0.09 0.06 0.04 0.03
0.00 0.00 0.01 0.00 0.00 0.00 0.00 0.00 0.00 0.01 0.01 0.02 0.01 0.01 0.01 0.01 0.00 0.00 0.00 0.00 0.01 0.01 0.01 0.03 0.03 0.04 0.04 0.03 0.02 0.01 0.01 0.02 0.03 0.03 0.04 0.05 0.07 0.10 0.14 0.14 0.09 0.05 0.05
0.01 0.01 0.01 0.01 0.00 0.00 0.00 0.00 0.00 0.00 0.01 0.01 0.01 0.00 0.00 0.00 0.00 0.00 0.00 0.00 0.00 0.01 0.01 0.01 0.01 0.02 0.01 0.01 0.01 0.01 0.01 0.01 0.02 0.04 0.03 0.04 0.06 0.05 0.09 0.12 0.10 0.08 0.07
0.00 0.00 0.01 0.00 0.00 0.00 0.00 0.00 0.00 0.00 0.00 0.00 0.00 0.01 0.01 0.01 0.01 0.01 0.01 0.00 0.00 0.00 0.00 0.00 0.00 0.00 0.00 0.00 0.00 0.00 0.00 0.01 0.02 0.02 0.03 0.05 0.05 0.04 0.05 0.06 0.07 0.08 0.08
0.00 0.00 0.01 0.00 0.00 0.00 0.00 0.00 0.00 0.00 0.01 0.01 0.01 0.01 0.01 0.01 0.01 0.01 0.01 0.01 0.00 0.01 0.00 0.00 0.00 0.00 0.00 0.00 0.00 0.01 0.01 0.01 0.01 0.02 0.03 0.03 0.01 0.01 0.02 0.04 0.04 0.05 0.06
0.01 0.01 0.01 0.00 0.00 0.00 0.00 0.00 0.01 0.01 0.01 0.02 0.02 0.01 0.01 0.02 0.01 0.01 0.01 0.00 0.00 0.00 0.00 0.00 0.00 0.00 0.00 0.00 0.01 0.02 0.02 0.02 0.02 0.03 0.02 0.01 0.01 0.01 0.01 0.01 0.01 0.02 0.03
0.01 0.01 0.01 0.01 0.01 0.00 0.00 0.00 0.01 0.01 0.01 0.01 0.01 0.01 0.01 0.01 0.01 0.00 0.00 0.00 0.00 0.00 0.00 0.00 0.00 0.00 0.00 0.00 0.01 0.03 0.03 0.03 0.03 0.03 0.01 0.00 0.00 0.00 0.00 0.00 0.01 0.01 0.01
0.00 0.00 0.00 0.01 0.01 0.01 0.00 0.00 0.00 0.00 0.00 0.00 0.00 0.00 0.00 0.01 0.01 0.00 0.00 0.00 0.00 0.00 0.00 0.00 0.00 0.00 0.00 0.01 0.01 0.02 0.02 0.02 0.02 0.03 0.02 0.00 0.00 0.00 0.00 0.00 0.00 0.01 0.01
0.00 0.00 0.00 0.00 0.00 0.00 0.00 0.00 0.00 0.00 0.00 0.00 0.00 0.00 0.00 0.00 0.00 0.00 0.00 0.00 0.00 0.00 0.00 0.00 0.00 0.00 0.00 0.00 0.00 0.01 0.01 0.02 0.02 0.02 0.01 0.01 0.00 0.00 0.00 0.00 0.00 0.00 0.01
0.01 0.01 0.00 0.00 0.00 0.00 0.00 0.00 0.00 0.00 0.00 0.01 0.00 0.00 0.00 0.00 0.00 0.00 0.00 0.00 0.00 0.00 0.00 0.00 0.00 0.00 0.00 0.00 0.00 0.00 0.01 0.01 0.01 0.01 0.01 0.01 0.01 0.00 0.00 0.00 0.00 0.01 0.01
0.01 0.01 0.01 0.01 0.00 0.00 0.00 0.00 0.00 0.00 0.00 0.00 0.00 0.00 0.00 0.00 0.00 0.00 0.00 0.00 0.00 0.00 0.00 0.00 0.00 0.00 0.00 0.00 0.00 0.00 0.00 0.01 0.01 0.01 0.01 0.01 0.00 0.00 0.00 0.00 0.01 0.01 0.01
0.01 0.01 0.01 0.01 0.01 0.00 0.00 0.00 0.00 0.00 0.00 0.00 0.00 0.00 0.00 0.00 0.00 0.00 0.00 0.00 0.00 0.00 0.00 0.00 0.00 0.00 0.00 0.01 0.01 0.01 0.01 0.01 0.01 0.01 0.01 0.01 0.00 0.00 0.00 0.00 0.01 0.01 0.01
0.00 0.00 0.01 0.01 0.01 0.01 0.01 0.01 0.01 0.01 0.00 0.00 0.00 0.00 0.01 0.00 0.00 0.00 0.00 0.00 0.00 0.00 0.00 0.00 0.00 0.00 0.00 0.00 0.01 0.02 0.02 0.02 0.01 0.01 0.01 0.01 0.01 0.00 0.00 0.01 0.01 0.02 0.02
0.00 0.00 0.01 0.01 0.01 0.01 0.02 0.02 0.01 0.01 0.01 0.00 0.00 0.00 0.00 0.01 0.01 0.00 0.00 0.00 0.00 0.00 0.00 0.00 0.00 0.01 0.01 0.01 0.01 0.01 0.01 0.01 0.01 0.01 0.01 0.01 0.01 0.01 0.00 0.00 0.01 0.01 0.02
0.01 0.01 0.01 0.01 0.02 0.01 0.01 0.02 0.02 0.01 0.01 0.01 0.01 0.00 0.01 0.01 0.01 0.01 0.01 0.01 0.00 0.00 0.00 0.00 0.00 0.00 0.00 0.00 0.00 0.00 0.01 0.01 0.02 0.01 0.01 0.01 0.01 0.01 0.01 0.02 0.02 0.02 0.03
0.02 0.02 0.01 0.01 0.02 0.02 0.01 0.02 0.02 0.01 0.01 0.01 0.01 0.01 0.01 0.01 0.01 0.01 0.01 0.00 0.00 0.00 0.00 0.00 0.00 0.01 0.00 0.00 0.00 0.00 0.00 0.00 0.01 0.01 0.00 0.00 0.00 0.01 0.02 0.02 0.02 0.02 0.02
0.02 0.01 0.02 0.02 0.02 0.03 0.04 0.03 0.02 0.01 0.01 0.01 0.01 0.01 0.01 0.01 0.01 0.01 0.00 0.00 0.00 0.00 0.01 0.00 0.01 0.01 0.00 0.00 0.00 0.00 0.00 0.01 0.00 0.01 0.01 0.01 0.01 0.01 0.01 0.01 0.02 0.02 0.02
0.01 0.01 0.02 0.02 0.02 0.05 0.05 0.04 0.03 0.02 0.01 0.02 0.01 0.01 0.01 0.00 0.01 0.00 0.00 0.00 0.00 0.00 0.00 0.00 0.00 0.00 0.00 0.00 0.01 0.01 0.01 0.01 0.01 0.02 0.02 0.02 0.02 0.02 0.02 0.01 0.01 0.01 0.01
MSLP
1016.35 1016.37 1016.31 1016.21 1016.06 1015.90 1015.75 1015.62 1015.52 1015.44 1015.38 1015.33 1015.26 1015.14 1014.96 1014.69 1014.32 1013.83 1013.24 1012.56 1011.84 1011.13 1010.50 1010.00 1009.70 1009.62 1009.77 1010.12 1010.63 1011.22 1011.82 1012.39 1012.86 1013.23 1013.51 1013.70 1013.85 1013.98 1014.11 1014.24 1014.35 1014.41 1014.40
1016.63 1016.65 1016.61 1016.51 1016.38 1016.23 1016.07 1015.93 1015.81 1015.72 1015.66 1015.60 1015.52 1015.41 1015.22 1014.93 1014.52 1013.98 1013.32 1012.57 1011.79 1011.02 1010.36 1009.85 1009.55 1009.50 1009.69 1010.09 1010.63 1011.26 1011.89 1012.48 1012.97 1013.35 1013.63 1013.83 1013.98 1014.11 1014.23 1014.34 1014.42 1014.46 1014.44
1016.86 1016.88 1016.85 1016.78 1016.68 1016.54 1016.40 1016.26 1016.14 1016.04 1015.97 1015.91 1015.84 1015.73 1015.55 1015.25 1014.84 1014.27 1013.59 1012.81 1011.99 1011.21 1010.53 1010.02 1009.74 1009.70 1009.91 1010.31 1010.86 1011.48 1012.10 1012.68 1013.15 1013.52 1013.80 1014.00 1014.14 1014.27 1014.37 1014.47 1014.53 1014.55 1014.51
1017.04 1017.05 1017.04 1017.00 1016.92 1016.82 1016.70 1016.57 1016.46 1016.36 1016.29 1016.24 1016.18 1016.09 1015.93 1015.66 1015.26 1014.72 1014.04 1013.28 1012.47 1011.70 1011.04 1010.55 1010.27 1010.24 1010.43 1010.81 1011.32 1011.89 1012.47 1012.99 1013.42 1013.77 1014.02 1014.21 1014.35 1014.47 1014.57 1014.65 1014.69 1014.70 1014.65
1017.17 1017.17 1017.17 1017.15 1017.11 1017.04 1016.94 1016.84 1016.73 1016.65 1016.59 1016.56 1016.52 1016.46 1016.34 1016.13 1015.78 1015.29 1014.68 1013.97 1013.23 1012.51 1011.88 1011.42 1011.15 1011.10 1011.26 1011.58 1012.01 1012.50 1012.99 1013.43 1013.80 1014.09 1014.32 1014.49 1014.63 1014.74 1014.83 1014.89 1014.93 1014.92 1014.86
1017.27 1017.26 1017.27 1017.27 1017.25 1017.21 1017.14 1017.05 1016.96 1016.89 1016.85 1016.84 1016.84 1016.83 1016.78 1016.64 1016.38 1015.99 1015.47 1014.86 1014.21 1013.57 1013.01 1012.58 1012.32 1012.25 1012.35 1012.59 1012.91 1013.29 1013.66 1014.00 1014.28 1014.52 1014.70 1014.85 1014.97 1015.08 1015.16 1015.22 1015.24 1015.23 1015.17
1017.38 1017.36 1017.36 1017.37 1017.37 1017.35 1017.29 1017.22 1017.14 1017.09 1017.07 1017.09 1017.14 1017.20 1017.23 1017.18 1017.04 1016.76 1016.37 1015.89 1015.35 1014.81 1014.32 1013.94 1013.69 1013.59 1013.62 1013.76 1013.97 1014.21 1014.45 1014.67 1014.86 1015.02 1015.16 1015.29 1015.40 1015.50 1015.58 1015.63 1015.64 1015.61 1015.55
1017.54 1017.49 1017.49 1017.50 1017.50 1017.49 1017.44 1017.37 1017.30 1017.26 1017.27 1017.33 1017.43 1017.56 1017.67 1017.73 1017.70 1017.56 1017.30 1016.95 1016.54 1016.11 1015.71 1015.38 1015.15 1015.01 1014.98 1015.01 1015.09 1015.20 1015.31 1015.41 1015.50 1015.59 1015.69 1015.78 1015.88 1015.97 1016.04 1016.08 1016.09 1016.05 1015.97
1017.75 1017.69 1017.67 1017.68 1017.68 1017.65 1017.60 1017.54 1017.48 1017.45 1017.47 1017.56 1017.71 1017.90 1018.09 1018.25 1018.33 1018.31 1018.18 1017.96 1017.68 1017.36 1017.04 1016.77 1016.54 1016.39 1016.29 1016.23 1016.20 1016.17 1016.16 1016.15 1016.16 1016.18 1016.23 1016.30 1016.38 1016.46 1016.52 1016.55 1016.54 1016.49 1016.40
1018.01 1017.94 1017.92 1017.91 1017.90 1017.87 1017.81 1017.74 1017.68 1017.66 1017.70 1017.81 1017.99 1018.22 1018.47 1018.70 1018.86 1018.94 1018.92 1018.81 1018.64 1018.42 1018.18 1017.96 1017.76 1017.59 1017.45 1017.31 1017.18 1017.06 1016.94 1016.84 1016.77 1016.73 1016.74 1016.79 1016.85 1016.93 1016.97 1016.99 1016.96 1016.88 1016.77
1018.29 1018.23 1018.20 1018.19 1018.17 1018.13 1018.06 1017.99 1017.92 1017.90 1017.94 1018.06 1018.26 1018.51 1018.78 1019.05 1019.26 1019.41 1019.47 1019.45 1019.36 1019.22 1019.07 1018.90 1018.73 1018.56 1018.38 1018.20 1018.00 1017.80 1017.60 1017.43 1017.30 1017.22 1017.19 1017.22 1017.27 1017.33 1017.36 1017.35 1017.30 1017.20 1017.06
1018.56 1018.51 1018.49 1018.48 1018.46 1018.41 1018.35 1018.27 1018.20 1018.17 1018.21 1018.32 1018.51 1018.75 1019.02 1019.28 1019.51 1019.69 1019.79 1019.83 1019.81 1019.75 1019.66 1019.55 1019.42 1019.27 1019.09 1018.88 1018.64 1018.38 1018.13 1017.91 1017.73 1017.62 1017.57 1017.57 1017.61 1017.65 1017.67 1017.64 1017.56 1017.43 1017.27
1018.77 1018.74 1018.74 1018.75 1018.73 1018.70 1018.64 1018.57 1018.51 1018.48 1018.50 1018.59 1018.74 1018.95 1019.18 1019.42 1019.64 1019.81 1019.93 1020.01 1020.04 1020.04 1020.02 1019.96 1019.88 1019.76 1019.59 1019.38 1019.12 1018.84 1018.56 1018.30 1018.09 1017.95 1017.88 1017.87 1017.89 1017.92 1017.93 1017.88 1017.78 1017.62 1017.43
1018.90 1018.91 1018.94 1018.97 1018.98 1018.97 1018.94 1018.89 1018.83 1018.80 1018.81 1018.87 1018.98 1019.14 1019.32 1019.51 1019.69 1019.84 1019.96 1020.06 1020.13 1020.18 1020.22 1020.22 1020.20 1020.12 1019.98 1019.77 1019.52 1019.23 1018.93 1018.65 1018.43 1018.27 1018.18 1018.16 1018.17 1018.18 1018.17 1018.12 1018.00 1017.82 1017.61
1018.96 1019.01 1019.07 1019.14 1019.19 1019.22 1019.22 1019.21 1019.17 1019.15 1019.16 1019.19 1019.26 1019.36 1019.48 1019.60 1019.73 1019.85 1019.97 1020.08 1020.18 1020.29 1020.38 1020.45 1020.47 1020.44 1020.34 1020.16 1019.92 1019.63 1019.32 1019.04 1018.80 1018.63 1018.53 1018.49 1018.49 1018.49 1018.47 1018.41 1018.28 1018.09 1017.87
1018.98 1019.06 1019.16 1019.27 1019.37 1019.45 1019.51 1019.53 1019.54 1019.54 1019.54 1019.56 1019.59 1019.64 1019.70 1019.77 1019.86 1019.95 1020.05 1020.17 1020.31 1020.46 1020.60 1020.73 1020.81 1020.83 1020.76 1020.61 1020.39 1020.11 1019.80 1019.51 1019.26 1019.08 1018.97 1018.92 1018.90 1018.90 1018.87 1018.80 1018.67 1018.48 1018.25
1019.01 1019.11 1019.25 1019.40 1019.55 1019.69 1019.80 1019.88 1019.93 1019.96 1019.98 1019.99 1020.00 1020.01 1020.04 1020.07 1020.11 1020.18 1020.28 1020.41 1020.58 1020.77 1020.96 1021.14 1021.26 1021.33 1021.29 1021.17 1020.97 1020.70 1020.40 1020.11 1019.85 1019.66 1019.53 1019.47 1019.45 1019.43 1019.40 1019.33 1019.19 1019.01 1018.77
1019.09 1019.21 1019.37 1019.56 1019.75 1019.94 1020.11 1020.24 1020.35 1020.42 1020.46 1020.48 1020.49 1020.48 1020.48 1020.49 1020.51 1020.57 1020.67 1020.82 1021.01 1021.23 1021.46 1021.68 1021.85 1021.94 1021.94 1021.84 1021.65 1021.40 1021.11 1020.82 1020.57 1020.37 1020.23 1020.15 1020.11 1020.08 1020.04 1019.96 1019.83 1019.64 1019.40
1019.26 1019.39 1019.57 1019.78 1020.01 1020.24 1020.45 1020.63 1020.78 1020.89 1020.97 1021.01 1021.02 1021.02 1021.01 1021.01 1021.03 1021.09 1021.20 1021.37 1021.57 1021.82 1022.08 1022.32 1022.51 1022.63 1022.66 1022.58 1022.42 1022.18 1021.91 1021.63 1021.37 1021.17 1021.02 1020.93 1020.87 1020.82 1020.76 1020.66 1020.52 1020.33 1020.09
1019.52 1019.66 1019.85 1020.07 1020.32 1020.57 1020.82 1021.04 1021.22 1021.37 1021.48 1021.54 1021.58 1021.59 1021.59 1021.60 1021.63 1021.70 1021.82 1022.00 1022.22 1022.48 1022.76 1023.01 1023.22 1023.36 1023.41 1023.35 1023.21 1023.00 1022.75 1022.48 1022.23 1022.03 1021.87 1021.75 1021.67 1021.59 1021.50 1021.38 1021.22 1021.01 1020.75
1019.86 1020.01 1020.20 1020.43 1020.68 1020.95 1021.21 1021.45 1021.66 1021.83 1021.96 1022.06 1022.12 1022.16 1022.18 1022.21 1022.26 1022.35 1022.49 1022.68 1022.91 1023.17 1023.45 1023.72 1023.93 1024.08 1024.14 1024.12 1024.00 1023.82 1023.59 1023.34 1023.11 1022.90 1022.73 1022.59 1022.47 1022.35 1022.22 1022.06 1021.86 1021.62 1021.34
1020.24 1020.40 1020.60 1020.83 1021.08 1021.35 1021.61 1021.85 1022.08 1022.27 1022.42 1022.54 1022.63 1022.70 1022.76 1022.83 1022.91 1023.02 1023.17 1023.37 1023.61 1023.88 1024.15 1024.41 1024.63 1024.79 1024.86 1024.85 1024.77 1024.61 1024.42 1024.19 1023.97 1023.76 1023.57 1023.40 1023.24 1023.07 1022.89 1022.67 1022.42 1022.14 1021.83
1020.61 1020.81 1021.03 1021.26 1021.51 1021.76 1022.02 1022.26 1022.48 1022.69 1022.86 1023.01 1023.14 1023.25 1023.35 1023.45 1023.57 1023.71 1023.89 1024.10 1024.34 1024.60 1024.87 1025.12 1025.33 1025.49 1025.58 1025.59 1025.52 1025.40 1025.22 1025.02 1024.81 1024.59 1024.38 1024.17 1023.96 1023.73 1023.49 1023.21 1022.90 1022.57 1022.21
1020.93 1021.18 1021.43 1021.69 1021.94 1022.19 1022.44 1022.68 1022.90 1023.12 1023.31 1023.50 1023.67 1023.82 1023.98 1024.13 1024.29 1024.47 1024.67 1024.89 1025.14 1025.39 1025.65 1025.89 1026.09 1026.24 1026.32 1026.34 1026.29 1026.18 1026.02 1025.83 1025.62 1025.39 1025.15 1024.90 1024.63 1024.35 1024.03 1023.69 1023.32 1022.93 1022.53
1021.19 1021.51 1021.81 1022.09 1022.37 1022.63 1022.88 1023.12 1023.36 1023.59 1023.82 1024.05 1024.27 1024.48 1024.69 1024.91 1025.12 1025.34 1025.57 1025.80 1026.05 1026.29 1026.53 1026.75 1026.93 1027.06 1027.13 1027.14 1027.09 1026.98 1026.82 1026.62 1026.39 1026.14 1025.87 1025.57 1025.25 1024.91 1024.53 1024.13 1023.70 1023.26 1022.81
1021.37 1021.77 1022.14 1022.48 1022.79 1023.07 1023.34 1023.61 1023.87 1024.14 1024.42 1024.70 1024.98 1025.26 1025.54 1025.81 1026.08 1026.34 1026.60 1026.85 1027.10 1027.33 1027.54 1027.73 1027.87 1027.97 1028.01 1027.99 1027.91 1027.78 1027.60 1027.38 1027.12 1026.84 1026.52 1026.18 1025.81 1025.41 1024.99 1024.53 1024.06 1023.57 1023.08
Thickness
5713 5712 5711 5711 5710 5710 5710 5709 5708 5707 5707 5706 5706 5706 5706 5707 5708 5709 5711 5713 5715 5717 5719 5722 5723 5724 5724 5725 5726 5727 5729 5730 5731 5732 5733 5734 5736 5737 5738 5740 5741 5741 5742
5712 5710 5709 5708 5708 5707 5706 5706 5705 5704 5703 5702 5701 5701 5702 5702 5703 5705 5706 5708 5710 5712 5714 5716 5718 5719 5720 5721 5721 5722 5723 5725 5726 5727 5729 5730 5731 5733 5735 5736 5737 5737 5738
5710 5709 5707 5706 5705 5705 5704 5703 5701 5700 5699 5698 5697 5697 5697 5698 5699 5700 5702 5703 5705 5707 5709 5711 5712 5713 5714 5715 5716 5717 5718 5720 5722 5723 5724 5726 5727 5729 5731 5733 5733 5733 5734
5709 5707 5706 5704 5703 5702 5701 5700 5698 5696 5694 5693 5693 5693 5693 5694 5695 5696 5697 5698 5700 5701 5703 5705 5706 5707 5709 5710 5711 5712 5714 5716 5717 5718 5719 5721 5723 5725 5727 5728 5729 5729 5729
5707 5706 5704 5702 5701 5700 5699 5697 5695 5693 5691 5690 5689 5689 5689 5690 5690 5691 5692 5693 5695 5696 5697 5698 5700 5701 5703 5704 5706 5707 5709 5710 5712 5713 5714 5716 5718 5719 5721 5722 5723 5724 5724
5705 5704 5702 5700 5699 5698 5696 5694 5692 5691 5689 5687 5688 5686 5685 5686 5686 5687 5687 5689 5690 5691 5692 5693 5695 5696 5697 5699 5700 5702 5704 5705 5706 5708 5709 5710 5712 5714 5716 5718 5719 5719 5719
5703 5702 5700 5699 5697 5695 5694 5693 5691 5688 5686 5685 5684 5681 5681 5682 5682 5682 5683 5684 5686 5687 5688 5689 5690 5691 5692 5693 5695 5696 5698 5699 5701 5702 5703 5705 5707 5709 5713 5715 5715 5714 5714
5701 5700 5699 5697 5695 5694 5692 5691 5690 5687 5685 5684 5681 5677 5674 5675 5677 5679 5679 5680 5681 5683 5684 5684 5685 5686 5687 5688 5689 5691 5692 5693 5695 5696 5697 5699 5701 5704 5708 5709 5710 5709 5708
5699 5698 5697 5696 5694 5693 5691 5690 5689 5687 5683 5681 5680 5677 5672 5669 5670 5674 5675 5676 5677 5678 5679 5680 5681 5682 5683 5683 5684 5685 5686 5687 5689 5690 5691 5693 5694 5696 5700 5701 5702 5701 5701
5697 5696 5695 5694 5693 5692 5690 5689 5688 5686 5684 5680 5678 5678 5676 5674 5669 5667 5670 5673 5674 5674 5675 5676 5677 5678 5678 5679 5680 5680 5681 5682 5683 5684 5685 5686 5687 5688 5690 5692 5692 5692 5693
5694 5694 5693 5693 5691 5690 5689 5688 5687 5686 5684 5681 5678 5677 5675 5672 5671 5667 5665 5666 5669 5671 5672 5672 5673 5673 5674 5675 5675 5676 5677 5677 5677 5678 5679 5680 5681 5681 5682 5683 5684 5684 5685
5691 5691 5691 5691 5690 5689 5688 5687 5686 5684 5683 5681 5679 5677 5675 5673 5670 5667 5664 5662 5663 5666 5668 5669 5669 5670 5670 5670 5671 5671 5672 5672 5672 5672 5672 5673 5674 5674 5675 5676 5676 5676 5677
5688 5688 5689 5688 5688 5687 5686 5685 5684 5682 5681 5679 5678 5676 5675 5674 5672 5668 5665 5661 5660 5661 5663 5665 5666 5666 5666 5666 5666 5667 5667 5667 5667 5667 5667 5667 5667 5667 5668 5668 5668 5669 5669
5687 5687 5687 5686 5686 5685 5684 5683 5682 5680 5679 5678 5677 5675 5674 5672 5671 5669 5666 5662 5658 5656 5658 5660 5661 5662 5662 5662 5662 5662 5662 5663 5662 5662 5662 5661 5661 5661 5661 5661 5661 5661 5661
5687 5686 5685 5684 5684 5683 5682 5681 5679 5678 5677 5676 5675 5674 5672 5671 5670 5668 5666 5664 5659 5654 5652 5654 5656 5658 5658 5658 5658 5658 5657 5657 5657 5657 5656 5656 5655 5655 5654 5654 5653 5653 5652
5686 5685 5684 5683 5682 5681 5680 5679 5677 5676 5675 5674 5673 5672 5670 5669 5668 5666 5664 5662 5660 5656 5650 5650 5651 5653 5654 5654 5654 5653 5653 5652 5651 5651 5651 5650 5649 5648 5648 5647 5646 5645 5645
5686 5684 5683 5682 5681 5679 5679 5677 5675 5674 5673 5671 5671 5669 5668 5667 5665 5663 5662 5659 5657 5654 5649 5648 5648 5649 5650 5649 5649 5649 5648 5647 5646 5645 5644 5643 5643 5642 5641 5640 5639 5638 5637
5685 5684 5682 5681 5679 5678 5677 5675 5673 5672 5670 5668 5667 5666 5665 5664 5662 5660 5658 5656 5653 5651 5648 5644 5643 5644 5644 5644 5643 5643 5642 5641 5640 5639 5638 5637 5636 5635 5634 5633 5632 5631 5630
5683 5682 5681 5679 5678 5676 5674 5673 5671 5669 5668 5666 5665 5664 5662 5661 5658 5656 5654 5652 5650 5648 5645 5641 5638 5638 5637 5637 5636 5636 5635 5634 5634 5632 5631 5630 5628 5627 5626 5625 5624 5623 5622
5682 5680 5679 5678 5676 5675 5673 5671 5669 5667 5665 5664 5662 5661 5659 5658 5656 5654 5651 5648 5645 5642 5639 5636 5633 5631 5630 5630 5628 5627 5626 5625 5625 5624 5622 5621 5620 5618 5617 5617 5616 5615 5613
5680 5678 5677 5675 5674 5672 5671 5668 5666 5664 5661 5660 5659 5657 5656 5655 5654 5651 5648 5645 5642 5638 5634 5631 5628 5625 5624 5622 5621 5619 5618 5617 5616 5615 5614 5612 5611 5610 5609 5608 5607 5606 5604
5677 5675 5673 5672 5670 5670 5669 5667 5664 5661 5658 5656 5654 5653 5652 5651 5650 5648 5646 5643 5639 5634 5630 5626 5622 5620 5618 5616 5614 5613 5611 5609 5608 5607 5605 5603 5602 5600 5599 5598 5597 5596 5594
5673 5671 5670 5668 5667 5666 5666 5664 5661 5658 5654 5652 5650 5648 5647 5646 5644 5642 5640 5637 5634 5631 5628 5623 5619 5616 5613 5611 5609 5606 5604 5601 5599 5598 5597 5595 5594 5591 5590 5588 5587 5585 5583
5669 5667 5666 5665 5663 5663 5662 5660 5657 5653 5650 5647 5645 5643 5641 5639 5638 5636 5633 5629 5626 5623 5621 5618 5615 5611 5609 5607 5603 5600 5597 5594 5592 5589 5587 5585 5584 5582 5581 5579 5577 5575 5573
5665 5664 5662 5660 5659 5658 5657 5655 5652 5648 5645 5642 5640 5638 5636 5634 5633 5630 5626 5622 5619 5616 5614 5611 5608 5605 5602 5599 5596 5593 5589 5586 5584 5581 5577 5574 5573 5572 5571 5569 5566 5564 5562
5662 5660 5658 5656 5655 5653 5652 5651 5648 5644 5639 5636 5634 5632 5630 5628 5626 5623 5619 5615 5611 5608 5606 5603 5599 5597 5594 5591 5588 5584 5580 5577 5574 5571 5568 5564 5562 5560 5560 5558 5555 5552 5549